{"data":{"norad_id":60096,"epoch":"2026-05-25T02:39:08.330112Z","epoch_age_seconds":68680,"freshness":"FRESH","line1":"1 60096U 24117F   26145.11051308  .00000479  00000+0  28289-4 0  9995","line2":"2 60096  53.1612  42.3865 0001262  83.4375 276.6770 15.30194707108584","mean_motion":15.30194707,"eccentricity":0.0001262,"inclination_deg":53.1612,"raan_deg":42.3865,"arg_perigee_deg":83.4375,"mean_anomaly_deg":276.677,"bstar":2.8289e-5,"rev_number":10858,"period_min":94.10567122031,"perigee_km":474.36597838319,"apogee_km":476.09576843443,"semimajor_km":6853.3678734088,"source":"CELESTRAK","updated_at":"2026-05-25T13:38:19.160687Z"}}